COSMOS 1959

导读 | 豆包AI

COSMOS 1959(宇宙1959)是独联体(CIS,继承自苏联航天体系)于1988年7月18日发射的卫星,归属苏联/俄罗斯“宇宙(Kosmos/COSMOS)”系列卫星序列。该系列是苏联/俄罗斯规模最大的卫星家族,涵盖军事侦察、技术试验、空间科学探测等多类任务,COSMOS 1959延续了该系列承担航天技术验证或特定轨道任务的定位,是冷战末期苏联航天活动的产物,目前已完成任务脱离在轨运行。

Basic Information
目录编号:
19324
目录名称:
COSMOS 1959
国际标识:
1988-062A
轨道中心:
EARTH
卫星名称:
COSMOS 1959
卫星全名:
--
卫星状态:
在轨 (已飞行13753 天)
发射日期:
1988-07-18 UTC
国别 :
俄罗斯(独联体) (CIS)
星等 :
--
Orbit Information
数据来源 国际轨道数据
星历时间: 2026-03-13T14:51:56+0800
20小时前
查看轨道信息
半长轴: 7355.015km
偏心率: 0.0034494
轨道倾角: 82.954°
近地点辐角 30.429°
升交点赤经 194.064°
平近点角 356.368°
近地点: 951.507km
远地点: 1002.249km
周期: 104.625分钟
每日圈数: 13.763455
Detailed Information
使用方式:
暂无
2D Orbit Map
3D Orbit Map
Orbit Altitude Analysis Chart
Orbit Inclination Analysis Chart
Orbit Comprehensive Analysis Chart
View Comprehensive Chart